[[{"header":{"parameterUnit":"m.s-1","parameterCategory":1,"la1":30.2991,"la2":30.254,"lo1":-89.0895,"lo2":-89.0444,"dy":0.0017,"dx":0.0017,"nx":28,"ny":28,"refTime":"2023-11-22T09:00:00:Z","depth":0,"parameterNumber":2,"parameterNumberName":"U-component_of_WINDS"},"data":[0,0,0,0,0,0,0,0,0,0,0,0,0,0,0,0,0,0,0,0,0,0,0,0,0,0,0,0,0,0,0,0,0,0,0,0,0,0,0,0,0,0,0,0,0,0,0,0,0,0,0,0,0,0,0,0,0,0,-2.9734,-2.9734,0,-2.9737,-2.9737,-2.9737,-2.9636,-2.9633,-2.9631,-2.9628,-2.9632,-2.9634,-2.9637,0,0,0,0,0,0,0,0,0,0,0,0,0,-2.9642,-2.9644,-2.9734,-2.9734,-2.9734,-2.9737,-2.9737,-2.9737,-2.9636,-2.9633,-2.963,-2.9627,-2.9631,-2.9634,-2.9637,0,0,0,0,0,0,0,0,0,0,0,0,0,-2.9667,-2.9645,-2.9734,-2.9684,-2.968,-2.9737,-2.9737,-2.9737,-2.9637,-2.9633,-2.9629,-2.9625,-2.963,-2.9634,-2.9638,-2.9742,0,0,-2.965,-2.9651,0,0,0,0,0,0,0,0,-2.9666,-2.967,-2.9691,-2.9688,-2.9683,-2.9682,-2.9705,-2.9739,-2.9638,-2.9653,-2.9628,-2.9623,-2.9652,-2.9654,-2.9663,-2.9743,-2.9743,-2.965,-2.9652,-2.9654,-2.9655,0,0,0,0,0,0,0,-2.9664,-2.967,-2.9735,-2.9692,-2.9687,-2.9662,-2.9661,-2.9711,-2.9675,-2.9652,-2.9644,-2.9646,-2.9649,-2.966,-2.9662,-2.9743,-2.965,-2.9653,-2.9656,-2.9657,-2.9908,-2.9912,0,0,0,0,0,0,-2.9669,-2.9669,-2.9735,-2.9735,-2.9664,-2.9667,-2.9666,-2.9686,-2.9674,-2.9669,-2.9649,-2.9641,-2.9655,-2.9658,-2.9662,-2.9783,-2.9654,-2.9658,-2.966,-2.9903,-2.9909,-2.9913,0,0,0,0,0,0,-2.9667,-2.9676,-2.9735,-2.97,-2.9706,-2.9673,-2.9696,-2.9688,-2.9699,-2.9673,-2.9666,-2.9667,-2.9652,-2.9657,-2.9723,-2.9782,-2.9659,-2.9663,-2.9898,-2.9905,-2.9911,-3.0027,0,0,0,0,0,0,-2.9665,-2.9676,-2.9715,-2.9702,-2.9708,-2.9796,-2.97,-2.9691,-2.9706,-2.9695,-2.9687,-2.9682,-2.9649,-2.9718,-2.9727,-2.9785,-2.9666,-2.9893,-2.9901,-2.9909,-3.0018,-3.0037,-3.0053,0,0,0,0,0,-2.9662,-2.9748,-2.9718,-2.9726,-2.9756,-2.9799,-2.9803,-2.9762,-2.9711,-2.975,-2.9733,-2.9682,-2.9774,-2.9725,-2.9735,-2.9795,-2.9889,-2.9899,-2.9908,-3.001,-3.0033,-3.0053,0,0,0,0,0,0,-2.977,-2.9746,-2.9712,-2.9796,-2.98,-2.9782,-2.983,-2.9788,-2.9808,-2.9797,-2.9747,-2.9746,-2.982,-2.9814,-2.976,-2.9896,-2.9823,-2.9835,-2.9897,-2.9918,-2.9936,-2.9935,-2.9669,0,0,0,0,0,-2.9804,-2.9841,-2.9817,-2.9894,-2.9898,-2.9864,-2.9881,-2.985,-2.9853,-2.9854,-2.9842,-2.9847,-2.9876,-2.9897,-2.9923,-3.0017,-3.0013,-3.0063,-3.0081,-3.0095,-3.0106,-3.0155,-3.0176,-2.9945,-2.9945,-2.9945,0,0,-2.9874,-2.9865,-2.9891,-2.9915,-2.9915,-2.9954,-2.9866,-2.9912,-2.994,-2.9861,-2.9922,-2.9914,-2.9916,-2.9997,-3.0031,-2.9994,-3.0169,-3.0108,-3.012,-3.0122,-3.0167,-3.0189,-3.0208,-2.9952,-2.9951,-2.9949,0,0,-3.002,-3.0018,-3.0081,-3.0082,-3.0083,-3.006,-3.0075,-3.0064,-3.0055,-3.0116,-3.0057,-3.009,-3.0143,-3.0147,-3.0155,-3.0304,-3.0257,-3.0314,-3.0405,-3.0453,-3.0471,-3.0487,-3.054,-3.0559,-3.0325,-3.0325,-3.0325,0,-3.0107,-3.0163,-3.0119,-3.0168,-3.018,-3.011,-3.0173,-3.0177,-3.0187,-3.0197,-3.0155,-3.0219,-3.0215,-3.0295,-3.0331,-3.0341,-3.0357,-3.0314,-3.0472,-3.0488,-3.0502,-3.0551,-3.0571,-3.0332,-3.0331,-3.033,-3.033,0,-3.027,-3.031,-3.0361,-3.0371,-3.0389,-3.0445,-3.0409,-3.0432,-3.04,-3.0381,-3.0444,-3.0437,-3.0461,-3.0477,-3.0446,-3.0553,-3.053,-3.0481,-3.0406,-3.0532,-3.0577,-3.0596,-3.0342,-3.0339,-3.0337,-3.0335,0,0,-3.0485,-3.0469,-3.0489,-3.0492,-3.0488,-3.0518,-3.0571,-3.0593,-3.0614,-3.0623,-3.0666,-3.0712,-3.0667,-3.0677,-3.0645,-3.0688,-3.0805,-3.0633,-3.0633,-3.0665,-3.0922,-3.0958,-3.098,-3.0774,-3.0778,-3.078,-3.0921,0,-3.0627,-3.0715,-3.0677,-3.077,-3.0806,-3.074,-3.0786,-3.0788,-3.0773,-3.0801,-3.0783,-3.0817,-3.0755,-3.076,-3.0799,-3.0782,-3.0856,-3.0772,-3.0813,-3.0815,-3.0814,-3.1004,-3.1043,-3.1176,-3.0939,-3.0942,-3.0944,0,-3.0804,-3.082,-3.0917,-3.0905,-3.0919,-3.0961,-3.0978,-3.1006,-3.1007,-3.0993,-3.1004,-3.0963,-3.1014,-3.094,-3.101,-3.0954,-3.0968,-3.0963,-3.0967,-3.0969,-3.0887,-3.1011,-3.1217,-3.1237,-3.0972,-3.0969,-3.0967,0,-3.095,-3.0996,-3.1059,-3.1064,-3.1053,-3.1084,-3.1081,-3.1078,-3.1094,-3.1109,-3.1118,-3.114,-3.1151,-3.1169,-3.1134,-3.1084,-3.1208,-3.1132,-3.1197,-3.1198,-3.1226,-3.1225,-3.1438,-3.1237,-3.1237,-3.1237,-3.1236,0,-3.1112,-3.1174,-3.1124,-3.1164,-3.123,-3.1185,-3.1253,-3.1242,-3.1241,-3.1276,-3.1221,-3.1256,-3.1208,-3.1239,-3.1212,-3.1273,-3.1279,-3.1269,-3.1261,-3.1273,-3.1275,-3.1282,-3.1271,-3.1242,-3.1241,-3.124,-3.1239,0,-3.1287,-3.1256,-3.1321,-3.1305,-3.1302,-3.1352,-3.1338,-3.1373,-3.1354,-3.14,-3.1408,-3.1377,-3.141,-3.1377,-3.1408,-3.139,-3.1472,-3.1451,-3.1472,-3.1466,-3.1533,-3.1527,-3.1757,-3.1785,-3.1568,-3.157,-3.1572,0,-3.1392,-3.1438,-3.1426,-3.1446,-3.1446,-3.1479,-3.1494,-3.1452,-3.147,-3.1475,-3.151,-3.1538,-3.1558,-3.1613,-3.1594,-3.1617,-3.1596,-3.1675,-3.1599,-3.161,-3.1596,-3.1593,-3.1597,-3.169,-3.1693,-3.1695,-3.1697,0,-3.1582,-3.1564,-3.1588,-3.1608,-3.1628,-3.1641,-3.165,-3.167,-3.1626,-3.1649,-3.1682,-3.1697,-3.1729,-3.1757,-3.1774,-3.1771,-3.1727,-3.1721,-3.1737,-3.175,-3.1759,-3.1754,-3.1513,-3.1715,-3.1714,-3.1712,-3.1711,-3.171,-3.1724,-3.1761,-3.1759,-3.1788,-3.179,-3.1799,-3.1832,-3.1816,-3.1842,-3.1864,-3.1837,-3.1877,-3.1877,-3.1896,-3.1897,-3.1928,-3.1895,-3.1918,-3.1924,-3.1931,-3.194,-3.1755,-3.1931,-3.1931,-3.193,-3.193,-3.1929,0,-3.191,-3.1905,-3.1932,-3.1946,-3.1969,-3.1925,-3.1933,-3.1955,-3.199,-3.1994,-3.2015,-3.2052,-3.2079,-3.2062,-3.2085,-3.2113,-3.2093,-3.212,-3.2117,-3.2117,-3.1969,-3.1952,-3.2136,-3.2136,-3.2136,-3.2136,-3.2136,-3.2136,-3.2009,-3.207,-3.2052,-3.2113,-3.2107,-3.2146,-3.2154,-3.2162,-3.2164,-3.2208,-3.2231,-3.2219,-3.2214,-3.2236,-3.2259,-3.2254,-3.2264,-3.2299,-3.2286,-3.2148,-3.2128,-3.2108,-3.2092,-3.2302,-3.2302,-3.2431,-3.2432,-3.2433]},{"header":{"parameterUnit":"m.s-1","parameterCategory":1,"la1":30.2991,"la2":30.254,"lo1":-89.0895,"lo2":-89.0444,"dy":0.0017,"dx":0.0017,"nx":28,"ny":28,"refTime":"2023-11-22T09:00:00:Z","depth":0,"parameterNumber":3,"parameterNumberName":"V-component_of_WINDS"},"data":[0,0,0,0,0,0,0,0,0,0,0,0,0,0,0,0,0,0,0,0,0,0,0,0,0,0,0,0,0,0,0,0,0,0,0,0,0,0,0,0,0,0,0,0,0,0,0,0,0,0,0,0,0,0,0,0,0,0,-2.1083,-2.1083,0,-2.1123,-2.1124,-2.1124,-2.1106,-2.1105,-2.1104,-2.1103,-2.1144,-2.1146,-2.1148,0,0,0,0,0,0,0,0,0,0,0,0,0,-2.0989,-2.099,-2.1083,-2.1083,-2.1084,-2.1123,-2.1124,-2.1124,-2.1106,-2.1105,-2.1103,-2.1102,-2.1143,-2.1145,-2.1148,0,0,0,0,0,0,0,0,0,0,0,0,0,-2.1029,-2.0991,-2.1083,-2.108,-2.108,-2.1123,-2.1124,-2.1125,-2.1106,-2.1105,-2.1103,-2.1102,-2.1142,-2.1145,-2.1148,-2.1197,0,0,-2.1157,-2.1159,0,0,0,0,0,0,0,0,-2.1027,-2.1033,-2.108,-2.108,-2.108,-2.1108,-2.1105,-2.1149,-2.1107,-2.1096,-2.1103,-2.1101,-2.1133,-2.1137,-2.1147,-2.1199,-2.1201,-2.1158,-2.1159,-2.1161,-2.1162,0,0,0,0,0,0,0,-2.1024,-2.1031,-2.1099,-2.108,-2.1081,-2.1076,-2.108,-2.1114,-2.1122,-2.1097,-2.1096,-2.1101,-2.1133,-2.1145,-2.1148,-2.1201,-2.1158,-2.116,-2.1162,-2.1163,-2.1294,-2.1295,0,0,0,0,0,0,-2.1022,-2.1029,-2.1098,-2.11,-2.1049,-2.1078,-2.1083,-2.1101,-2.1122,-2.1124,-2.1102,-2.11,-2.114,-2.1145,-2.115,-2.1208,-2.1161,-2.1164,-2.1165,-2.1292,-2.1294,-2.1296,0,0,0,0,0,0,-2.102,-2.1028,-2.1096,-2.1064,-2.1072,-2.1082,-2.1101,-2.1102,-2.1114,-2.1126,-2.1127,-2.1113,-2.1139,-2.1145,-2.1185,-2.1209,-2.1165,-2.1168,-2.129,-2.1293,-2.1295,-2.1325,0,0,0,0,0,0,-2.1017,-2.1027,-2.1047,-2.1065,-2.1074,-2.1131,-2.1103,-2.1104,-2.1119,-2.1117,-2.1136,-2.1138,-2.1138,-2.1181,-2.1188,-2.1212,-2.117,-2.1288,-2.1291,-2.1294,-2.1322,-2.1328,-2.1333,0,0,0,0,0,-2.1014,-2.1053,-2.1048,-2.1056,-2.1098,-2.1133,-2.1138,-2.1138,-2.1121,-2.114,-2.1148,-2.1137,-2.1205,-2.1185,-2.1193,-2.1219,-2.1287,-2.129,-2.1294,-2.1319,-2.1327,-2.1333,0,0,0,0,0,0,-2.1038,-2.1056,-2.105,-2.1096,-2.1113,-2.113,-2.1154,-2.1146,-2.1168,-2.1165,-2.1164,-2.1168,-2.1209,-2.1218,-2.1195,-2.1267,-2.1243,-2.1249,-2.1259,-2.1267,-2.1272,-2.1269,-2.1173,0,0,0,0,0,-2.1049,-2.1075,-2.1089,-2.1129,-2.1138,-2.1144,-2.1159,-2.1158,-2.1175,-2.1182,-2.1193,-2.121,-2.1235,-2.1251,-2.1275,-2.1323,-2.1326,-2.1344,-2.135,-2.1355,-2.1359,-2.1384,-2.1392,-2.1308,-2.1308,-2.1308,0,0,-2.1071,-2.1084,-2.1101,-2.1134,-2.1147,-2.1175,-2.1151,-2.1181,-2.1201,-2.1187,-2.1225,-2.1233,-2.1252,-2.1296,-2.1315,-2.1304,-2.1383,-2.1359,-2.1363,-2.1365,-2.1389,-2.1397,-2.1404,-2.1311,-2.131,-2.131,0,0,-2.1126,-2.1139,-2.1173,-2.1186,-2.1206,-2.121,-2.1218,-2.1235,-2.124,-2.1279,-2.1268,-2.1292,-2.1335,-2.1349,-2.1361,-2.142,-2.1411,-2.1428,-2.1458,-2.1483,-2.1489,-2.1495,-2.1515,-2.1523,-2.1433,-2.1433,-2.1433,0,-2.1151,-2.1192,-2.1191,-2.1222,-2.1237,-2.1225,-2.1259,-2.1272,-2.1299,-2.1309,-2.1296,-2.1349,-2.1361,-2.1407,-2.1422,-2.1432,-2.1441,-2.1426,-2.1488,-2.1494,-2.15,-2.1519,-2.1527,-2.1435,-2.1434,-2.1434,-2.1434,0,-2.1222,-2.1251,-2.1276,-2.1302,-2.1319,-2.1351,-2.1355,-2.1372,-2.1369,-2.1374,-2.1413,-2.1426,-2.1452,-2.1463,-2.146,-2.1509,-2.1501,-2.1488,-2.1465,-2.151,-2.1528,-2.1535,-2.1437,-2.1437,-2.1436,-2.1436,0,0,-2.1294,-2.1318,-2.1327,-2.1338,-2.1359,-2.1381,-2.1412,-2.1437,-2.1452,-2.147,-2.1496,-2.1533,-2.1521,-2.1535,-2.1533,-2.1555,-2.16,-2.1539,-2.154,-2.155,-2.1653,-2.1662,-2.1671,-2.1594,-2.1595,-2.1596,-2.1651,0,-2.135,-2.1405,-2.1405,-2.1455,-2.1481,-2.147,-2.1497,-2.1513,-2.1518,-2.154,-2.1546,-2.1571,-2.1554,-2.1562,-2.1583,-2.159,-2.162,-2.1586,-2.1617,-2.1618,-2.1613,-2.1681,-2.1691,-2.1742,-2.1658,-2.166,-2.1661,0,-2.1422,-2.1443,-2.1496,-2.1512,-2.1523,-2.1548,-2.157,-2.1592,-2.1608,-2.1611,-2.1626,-2.1621,-2.1652,-2.1628,-2.167,-2.1647,-2.166,-2.1665,-2.1667,-2.1669,-2.1642,-2.1685,-2.1759,-2.1766,-2.1672,-2.1671,-2.167,0,-2.1468,-2.151,-2.1547,-2.1556,-2.1576,-2.1593,-2.1602,-2.1617,-2.1632,-2.1652,-2.1661,-2.1685,-2.1697,-2.1715,-2.1716,-2.1698,-2.1758,-2.1734,-2.1761,-2.1761,-2.1774,-2.1773,-2.185,-2.1783,-2.1782,-2.1782,-2.1782,0,-2.1531,-2.1564,-2.1567,-2.159,-2.1626,-2.1625,-2.1661,-2.1668,-2.1682,-2.1705,-2.1697,-2.1719,-2.1719,-2.1742,-2.1743,-2.1777,-2.1783,-2.1785,-2.1785,-2.1786,-2.1785,-2.1794,-2.179,-2.1784,-2.1784,-2.1783,-2.1783,0,-2.1588,-2.1592,-2.1632,-2.1647,-2.1651,-2.1677,-2.169,-2.1711,-2.1716,-2.1745,-2.1752,-2.1759,-2.1785,-2.1787,-2.1817,-2.1818,-2.1859,-2.1856,-2.1854,-2.1853,-2.1879,-2.1877,-2.1964,-2.1976,-2.1901,-2.1902,-2.1902,0,-2.1628,-2.1653,-2.167,-2.1686,-2.1695,-2.172,-2.1735,-2.1735,-2.1751,-2.1771,-2.179,-2.1815,-2.1835,-2.1876,-2.1883,-2.1906,-2.1902,-2.1932,-2.1906,-2.1906,-2.1902,-2.1901,-2.1903,-2.1937,-2.1937,-2.1938,-2.1939,0,-2.1697,-2.1697,-2.172,-2.1742,-2.176,-2.1778,-2.1795,-2.1808,-2.1809,-2.1827,-2.1854,-2.1869,-2.19,-2.1924,-2.1946,-2.1955,-2.1947,-2.1947,-2.1954,-2.1955,-2.1953,-2.1954,-2.1867,-2.1945,-2.1944,-2.1944,-2.1943,-2.1943,-2.1746,-2.1768,-2.1783,-2.1808,-2.182,-2.1836,-2.1856,-2.1863,-2.1885,-2.191,-2.1908,-2.1937,-2.1952,-2.1981,-2.1991,-2.2013,-2.2003,-2.2014,-2.2016,-2.2019,-2.2021,-2.1949,-2.2017,-2.2017,-2.2017,-2.2017,-2.2017,0,-2.1815,-2.1824,-2.1847,-2.187,-2.1889,-2.188,-2.1898,-2.1914,-2.194,-2.1955,-2.1974,-2.2004,-2.2028,-2.2036,-2.2059,-2.2075,-2.2072,-2.2081,-2.208,-2.2082,-2.2029,-2.202,-2.2083,-2.2083,-2.2083,-2.2083,-2.2083,-2.2083,-2.1852,-2.1888,-2.189,-2.1931,-2.194,-2.1968,-2.1979,-2.1993,-2.2005,-2.2038,-2.2058,-2.2064,-2.2076,-2.2099,-2.212,-2.2122,-2.2131,-2.2141,-2.2142,-2.2092,-2.2086,-2.2079,-2.2071,-2.2143,-2.2143,-2.2192,-2.2193,-2.2193]}]]